This demonstration page uses our WeatherBlox Daily Observations layout. Learn more.

Left ArrowRight Arrow

34.02893, -84.19858

Hourly Observations for October 15, 2019

Temp ( °F °C ) Dew Point ( °F °C ) Humidity (%) Winds ( mph kmh ) Pressure ( in mb ) Visibility ( mi km ) Precip ( " mm )
12:53 am 00:53 Cloudy 61 16.1 58 14.4 90 90 Calm 30.08 1019 10 16 0.00 0.00
1:53 am 01:53 Mostly Cloudy 62 16.7 58 14.4 86 86 Calm 30.06 1018 10 16 0.00 0.00
2:53 am 02:53 Cloudy 63 17.2 58 14.4 84 84 Calm 30.07 1018 10 16 0.00 0.00
3:53 am 03:53 Cloudy 63 17.2 58 14.4 84 84 Calm 30.06 1018 10 16 0.00 0.00
4:53 am 04:53 Cloudy with Rain 63 17.2 59 15 87 87 Calm 30.07 1018 3 5 0.03 0.76
5:53 am 05:53 Cloudy 61 16.1 59 15 93 93 Calm 30.08 1019 10 16 0.02 0.51
6:53 am 06:53 Cloudy 62 16.7 60 15.6 93 93 Calm 30.08 1019 10 16 0.00 0.00
7:53 am 07:53 Cloudy 62 16.7 59 15 90 90 Calm 30.08 1019 10 16 0.00 0.00
8:53 am 08:53 Partly Cloudy 63 17.2 59 15 87 87 Calm 30.07 1018 10 16 0.00 0.00
9:53 am 09:53 Cloudy 64 17.8 58 14.4 81 81 Calm 30.09 1019 10 16 0.00 0.00
10:53 am 10:53 Cloudy 65 18.3 58 14.4 78 78 Calm 30.09 1019 10 16 0.00 0.00
11:53 am 11:53 Cloudy 67 19.4 57 13.9 71 71 ENE 3 6 30.07 1018 10 16 0.00 0.00
12:53 pm 12:53 Cloudy 69 20.6 58 14.4 68 68 NNE 3 6 30.06 1018 10 16 0.00 0.00
1:53 pm 13:53 Cloudy 68 20 58 14.4 70 70 SSE 3 6 30.05 1018 10 16 0.00 0.00
2:53 pm 14:53 Cloudy 69 20.6 59 15 70 70 Calm 30.02 1017 10 16 0.00 0.00
3:53 pm 15:53 Mostly Cloudy 70 21.1 58 14.4 66 66 VRB 3 6 29.98 1015 10 16 0.00 0.00
4:53 pm 16:53 Mostly Cloudy 68 20 57 13.9 68 68 ESE 3 6 29.97 1015 10 16 0.00 0.00
5:19 pm 17:19 Mostly Cloudy with Light Rain 66 18.9 59 15 78 78 E 3 6 29.98 1015 10 16 0.01 0.25
5:53 pm 17:53 Cloudy with Light Rain 65 18.3 60 15.6 84 84 Calm 29.98 1015 7 11 0.01 0.25
6:53 pm 18:53 Cloudy with Light Rain 64 17.8 62 16.7 93 93 E 3 6 29.98 1015 6 10 0.04 1.02
7:53 pm 19:53 Cloudy with Light Rain 63 17.2 62 16.7 97 97 VRB 3 6 29.94 1014 9 14 0.02 0.51
8:10 pm 20:10 Cloudy 63 17.2 62 16.7 97 97 VRB 3 6 29.94 1014 8 13 0.00 0.00
8:19 pm 20:19 Cloudy 64 17.8 62 16.7 93 93 Calm 29.94 1014 8 13 0.00 0.00
8:53 pm 20:53 Cloudy 63 17.2 62 16.7 97 97 ENE 5 7 29.94 1014 8 13 0.00 0.00
9:53 pm 21:53 Cloudy 63 17.2 62 16.7 97 97 Calm 29.94 1014 7 11 0.00 0.00
10:23 pm 22:23 Cloudy with Mist and Fog 63 17.2 63 17.2 100 100 Calm 29.93 1014 4 6 0.00 0.00
10:33 pm 22:33 Cloudy with Mist and Fog 63 17.2 63 17.2 100 100 VRB 5 7 29.93 1014 5 8 0.00 0.00
10:53 pm 22:53 Cloudy with Mist and Fog 63 17.2 63 17.2 100 100 Calm 29.92 1013 5 8 0.00 0.00
11:53 pm 23:53 Cloudy 63 17.2 62 16.7 97 97 VRB 3 6 29.93 1013 7 11 0.00 0.00

Powered by AerisWeather